QPF
0.00 0.00 0.00 0.00 0.00 0.00 0.00 0.00 0.00 0.00 0.00 0.00 0.00 0.00 0.00 0.00 0.00 0.00 0.00 0.00 0.00 0.00 0.00 0.00 0.00 0.00 0.00 0.00 0.01 0.01 0.02 0.02 0.02 0.03 0.04 0.06 0.06 0.06
0.00 0.00 0.00 0.00 0.00 0.00 0.00 0.00 0.00 0.00 0.00 0.00 0.00 0.00 0.00 0.00 0.00 0.00 0.00 0.00 0.00 0.00 0.00 0.00 0.00 0.00 0.00 0.00 0.00 0.00 0.00 0.00 0.01 0.01 0.02 0.03 0.03 0.04
0.00 0.00 0.00 0.00 0.00 0.00 0.00 0.00 0.00 0.00 0.00 0.00 0.00 0.00 0.00 0.00 0.00 0.00 0.00 0.00 0.00 0.00 0.00 0.00 0.00 0.00 0.00 0.00 0.00 0.00 0.00 0.00 0.00 0.00 0.00 0.00 0.01 0.02
0.00 0.00 0.00 0.00 0.00 0.00 0.00 0.00 0.00 0.00 0.00 0.00 0.00 0.00 0.00 0.00 0.00 0.00 0.00 0.00 0.00 0.00 0.00 0.00 0.00 0.00 0.00 0.00 0.00 0.00 0.00 0.00 0.00 0.00 0.00 0.00 0.01 0.01
0.00 0.00 0.00 0.00 0.00 0.00 0.00 0.00 0.00 0.00 0.00 0.00 0.00 0.00 0.00 0.00 0.00 0.00 0.00 0.00 0.00 0.00 0.00 0.00 0.00 0.00 0.00 0.00 0.00 0.00 0.00 0.00 0.00 0.00 0.00 0.00 0.00 0.00
0.00 0.00 0.00 0.00 0.00 0.00 0.00 0.00 0.00 0.01 0.01 0.00 0.00 0.00 0.00 0.00 0.00 0.00 0.00 0.00 0.00 0.00 0.00 0.00 0.00 0.00 0.00 0.00 0.00 0.00 0.00 0.00 0.00 0.00 0.00 0.00 0.00 0.00
0.00 0.00 0.00 0.00 0.00 0.01 0.00 0.01 0.01 0.01 0.01 0.00 0.00 0.00 0.00 0.01 0.00 0.00 0.00 0.00 0.00 0.00 0.00 0.00 0.00 0.00 0.00 0.00 0.00 0.00 0.00 0.00 0.00 0.00 0.00 0.00 0.00 0.00
0.02 0.02 0.01 0.01 0.01 0.01 0.00 0.01 0.01 0.01 0.01 0.00 0.00 0.01 0.01 0.01 0.01 0.00 0.00 0.00 0.00 0.00 0.00 0.00 0.00 0.00 0.00 0.00 0.00 0.00 0.00 0.00 0.00 0.00 0.00 0.00 0.00 0.00
0.02 0.03 0.02 0.01 0.03 0.04 0.03 0.02 0.01 0.01 0.01 0.00 0.00 0.00 0.01 0.01 0.02 0.01 0.01 0.01 0.01 0.00 0.01 0.00 0.00 0.00 0.00 0.00 0.00 0.00 0.00 0.00 0.00 0.00 0.00 0.00 0.00 0.00
0.01 0.02 0.03 0.02 0.03 0.05 0.06 0.05 0.04 0.02 0.01 0.01 0.00 0.00 0.00 0.01 0.01 0.01 0.01 0.01 0.01 0.00 0.00 0.00 0.00 0.00 0.00 0.00 0.00 0.00 0.00 0.00 0.00 0.00 0.00 0.00 0.00 0.00
0.02 0.03 0.04 0.04 0.04 0.05 0.06 0.06 0.06 0.04 0.02 0.02 0.01 0.01 0.00 0.01 0.01 0.01 0.01 0.01 0.00 0.00 0.00 0.00 0.00 0.00 0.00 0.00 0.00 0.00 0.00 0.00 0.00 0.00 0.00 0.00 0.00 0.00
0.03 0.04 0.04 0.04 0.04 0.04 0.05 0.06 0.06 0.04 0.06 0.06 0.05 0.02 0.01 0.01 0.01 0.01 0.01 0.01 0.00 0.00 0.00 0.01 0.00 0.01 0.01 0.00 0.00 0.00 0.00 0.00 0.00 0.00 0.00 0.00 0.00 0.00
0.03 0.03 0.04 0.04 0.03 0.02 0.02 0.03 0.04 0.04 0.07 0.08 0.08 0.08 0.06 0.04 0.03 0.02 0.01 0.01 0.00 0.00 0.00 0.01 0.01 0.02 0.02 0.01 0.00 0.00 0.00 0.00 0.00 0.00 0.00 0.00 0.00 0.00
0.01 0.01 0.02 0.02 0.01 0.01 0.01 0.01 0.01 0.02 0.02 0.03 0.04 0.05 0.05 0.05 0.05 0.05 0.05 0.04 0.03 0.01 0.01 0.02 0.03 0.03 0.03 0.02 0.01 0.00 0.00 0.00 0.00 0.00 0.00 0.00 0.00 0.00
0.00 0.00 0.00 0.00 0.00 0.00 0.01 0.01 0.01 0.01 0.01 0.02 0.02 0.02 0.02 0.03 0.04 0.07 0.11 0.12 0.10 0.05 0.02 0.03 0.04 0.04 0.04 0.02 0.01 0.00 0.00 0.00 0.00 0.00 0.00 0.00 0.01 0.01
0.00 0.00 0.00 0.00 0.00 0.00 0.00 0.00 0.01 0.01 0.01 0.02 0.02 0.02 0.03 0.04 0.05 0.07 0.10 0.13 0.14 0.09 0.05 0.05 0.06 0.07 0.06 0.03 0.03 0.01 0.00 0.00 0.00 0.01 0.01 0.01 0.01 0.02
0.00 0.00 0.00 0.00 0.00 0.00 0.01 0.01 0.02 0.02 0.03 0.03 0.04 0.05 0.06 0.07 0.07 0.09 0.11 0.14 0.16 0.13 0.11 0.11 0.11 0.11 0.10 0.08 0.07 0.03 0.01 0.01 0.01 0.01 0.02 0.01 0.01 0.01
0.00 0.00 0.00 0.00 0.01 0.01 0.02 0.02 0.03 0.05 0.06 0.07 0.08 0.09 0.10 0.11 0.11 0.13 0.15 0.16 0.16 0.14 0.14 0.14 0.18 0.22 0.19 0.13 0.07 0.04 0.02 0.01 0.01 0.02 0.04 0.02 0.01 0.01
0.00 0.01 0.01 0.02 0.03 0.03 0.03 0.04 0.04 0.06 0.08 0.10 0.11 0.13 0.14 0.15 0.16 0.17 0.17 0.18 0.17 0.15 0.13 0.14 0.18 0.21 0.18 0.10 0.05 0.04 0.03 0.03 0.03 0.03 0.04 0.03 0.02 0.01
0.02 0.03 0.04 0.04 0.04 0.05 0.05 0.06 0.07 0.07 0.09 0.10 0.12 0.13 0.16 0.18 0.20 0.20 0.20 0.21 0.21 0.20 0.19 0.18 0.17 0.16 0.14 0.11 0.10 0.08 0.06 0.05 0.06 0.04 0.03 0.04 0.03 0.02
0.03 0.03 0.03 0.04 0.05 0.06 0.06 0.07 0.08 0.10 0.12 0.14 0.15 0.16 0.18 0.20 0.21 0.21 0.21 0.21 0.21 0.22 0.20 0.16 0.13 0.15 0.17 0.19 0.15 0.07 0.05 0.04 0.03 0.04 0.05 0.06 0.04 0.04
0.03 0.04 0.04 0.04 0.05 0.06 0.07 0.08 0.10 0.11 0.14 0.15 0.16 0.17 0.18 0.20 0.20 0.20 0.21 0.22 0.21 0.18 0.16 0.13 0.16 0.22 0.21 0.18 0.11 0.06 0.06 0.06 0.07 0.03 0.02 0.03 0.03 0.03
0.03 0.04 0.04 0.05 0.06 0.07 0.08 0.09 0.11 0.14 0.15 0.16 0.17 0.17 0.18 0.18 0.19 0.20 0.21 0.21 0.21 0.21 0.19 0.18 0.18 0.20 0.20 0.17 0.14 0.10 0.06 0.07 0.10 0.10 0.04 0.01 0.01 0.00
MSLP
1018.96 1019.02 1019.11 1019.20 1019.30 1019.38 1019.42 1019.41 1019.35 1019.24 1019.11 1018.97 1018.84 1018.74 1018.67 1018.65 1018.67 1018.73 1018.83 1018.96 1019.10 1019.26 1019.43 1019.59 1019.73 1019.85 1019.95 1020.00 1020.03 1020.03 1020.00 1019.97 1019.95 1019.93 1019.95 1019.98 1020.05 1020.13
1018.83 1018.88 1018.94 1019.01 1019.08 1019.14 1019.18 1019.17 1019.13 1019.05 1018.95 1018.82 1018.70 1018.59 1018.51 1018.45 1018.42 1018.43 1018.47 1018.55 1018.65 1018.78 1018.93 1019.08 1019.23 1019.37 1019.48 1019.57 1019.61 1019.64 1019.63 1019.61 1019.59 1019.58 1019.58 1019.60 1019.64 1019.69
1018.56 1018.60 1018.65 1018.71 1018.76 1018.81 1018.84 1018.84 1018.82 1018.76 1018.68 1018.58 1018.48 1018.37 1018.27 1018.18 1018.11 1018.07 1018.05 1018.07 1018.12 1018.20 1018.32 1018.45 1018.60 1018.75 1018.88 1019.00 1019.08 1019.14 1019.18 1019.19 1019.20 1019.21 1019.21 1019.23 1019.26 1019.30
1018.14 1018.19 1018.23 1018.28 1018.33 1018.37 1018.40 1018.41 1018.40 1018.37 1018.32 1018.25 1018.17 1018.07 1017.97 1017.87 1017.77 1017.68 1017.61 1017.56 1017.56 1017.58 1017.65 1017.75 1017.87 1018.02 1018.16 1018.30 1018.42 1018.52 1018.60 1018.66 1018.71 1018.75 1018.79 1018.83 1018.86 1018.90
1017.57 1017.62 1017.67 1017.72 1017.77 1017.82 1017.86 1017.88 1017.89 1017.89 1017.87 1017.84 1017.78 1017.71 1017.62 1017.52 1017.40 1017.28 1017.17 1017.07 1017.00 1016.97 1016.97 1017.02 1017.11 1017.22 1017.36 1017.50 1017.63 1017.76 1017.88 1017.98 1018.08 1018.16 1018.24 1018.31 1018.38 1018.43
1016.87 1016.94 1017.00 1017.06 1017.12 1017.17 1017.22 1017.26 1017.30 1017.32 1017.33 1017.33 1017.31 1017.27 1017.21 1017.12 1017.01 1016.88 1016.74 1016.60 1016.48 1016.38 1016.33 1016.31 1016.34 1016.40 1016.50 1016.62 1016.75 1016.88 1017.02 1017.16 1017.29 1017.42 1017.54 1017.66 1017.77 1017.85
1016.12 1016.20 1016.27 1016.34 1016.41 1016.47 1016.53 1016.58 1016.62 1016.67 1016.70 1016.73 1016.75 1016.75 1016.72 1016.66 1016.57 1016.45 1016.30 1016.14 1015.98 1015.84 1015.72 1015.64 1015.60 1015.60 1015.64 1015.71 1015.81 1015.93 1016.06 1016.21 1016.37 1016.53 1016.70 1016.86 1017.01 1017.14
1015.41 1015.48 1015.55 1015.63 1015.70 1015.76 1015.82 1015.87 1015.91 1015.96 1016.01 1016.05 1016.10 1016.12 1016.13 1016.11 1016.05 1015.96 1015.83 1015.67 1015.49 1015.31 1015.15 1015.01 1014.90 1014.82 1014.79 1014.80 1014.85 1014.94 1015.06 1015.20 1015.37 1015.56 1015.75 1015.95 1016.14 1016.31
1014.83 1014.89 1014.95 1015.01 1015.07 1015.12 1015.15 1015.18 1015.20 1015.23 1015.26 1015.31 1015.35 1015.40 1015.43 1015.45 1015.42 1015.36 1015.26 1015.12 1014.95 1014.76 1014.57 1014.38 1014.22 1014.09 1013.99 1013.94 1013.93 1013.97 1014.06 1014.19 1014.35 1014.54 1014.76 1014.98 1015.20 1015.39
1014.48 1014.51 1014.54 1014.57 1014.59 1014.60 1014.58 1014.56 1014.53 1014.51 1014.50 1014.51 1014.54 1014.58 1014.62 1014.65 1014.66 1014.63 1014.56 1014.46 1014.31 1014.13 1013.94 1013.73 1013.54 1013.37 1013.22 1013.12 1013.07 1013.07 1013.12 1013.23 1013.37 1013.56 1013.77 1014.00 1014.22 1014.43
1014.40 1014.38 1014.36 1014.34 1014.30 1014.23 1014.15 1014.05 1013.94 1013.84 1013.76 1013.70 1013.67 1013.67 1013.69 1013.72 1013.74 1013.74 1013.70 1013.64 1013.52 1013.38 1013.20 1013.01 1012.82 1012.64 1012.47 1012.35 1012.27 1012.24 1012.27 1012.35 1012.47 1012.64 1012.83 1013.05 1013.25 1013.45
1014.57 1014.49 1014.40 1014.30 1014.17 1014.02 1013.84 1013.63 1013.42 1013.22 1013.03 1012.88 1012.77 1012.71 1012.68 1012.67 1012.68 1012.69 1012.68 1012.65 1012.58 1012.48 1012.35 1012.19 1012.03 1011.86 1011.71 1011.59 1011.51 1011.47 1011.48 1011.54 1011.65 1011.79 1011.96 1012.14 1012.31 1012.47
1014.92 1014.76 1014.59 1014.39 1014.16 1013.90 1013.61 1013.29 1012.96 1012.64 1012.34 1012.07 1011.86 1011.70 1011.60 1011.54 1011.52 1011.52 1011.52 1011.51 1011.48 1011.43 1011.35 1011.26 1011.14 1011.03 1010.91 1010.82 1010.75 1010.72 1010.74 1010.79 1010.87 1010.99 1011.12 1011.26 1011.38 1011.49
1015.31 1015.07 1014.81 1014.51 1014.18 1013.81 1013.40 1012.96 1012.51 1012.07 1011.65 1011.27 1010.94 1010.68 1010.49 1010.36 1010.29 1010.25 1010.25 1010.25 1010.26 1010.26 1010.24 1010.21 1010.16 1010.10 1010.05 1010.00 1009.97 1009.96 1009.98 1010.03 1010.10 1010.19 1010.29 1010.38 1010.46 1010.51
1015.63 1015.31 1014.95 1014.55 1014.12 1013.64 1013.13 1012.59 1012.04 1011.48 1010.95 1010.46 1010.03 1009.67 1009.38 1009.17 1009.03 1008.96 1008.93 1008.94 1008.97 1009.00 1009.04 1009.07 1009.09 1009.10 1009.10 1009.11 1009.12 1009.15 1009.18 1009.23 1009.30 1009.36 1009.43 1009.48 1009.51 1009.52
1015.76 1015.36 1014.92 1014.44 1013.92 1013.36 1012.76 1012.14 1011.50 1010.86 1010.24 1009.66 1009.13 1008.68 1008.30 1008.01 1007.80 1007.67 1007.61 1007.61 1007.65 1007.72 1007.80 1007.88 1007.96 1008.03 1008.09 1008.15 1008.20 1008.26 1008.31 1008.37 1008.42 1008.48 1008.52 1008.54 1008.54 1008.51
1015.66 1015.19 1014.68 1014.13 1013.55 1012.93 1012.28 1011.60 1010.91 1010.21 1009.53 1008.88 1008.28 1007.74 1007.29 1006.92 1006.64 1006.46 1006.36 1006.34 1006.37 1006.45 1006.56 1006.68 1006.81 1006.93 1007.04 1007.14 1007.22 1007.30 1007.37 1007.43 1007.48 1007.52 1007.55 1007.55 1007.54 1007.50
1015.34 1014.82 1014.26 1013.67 1013.05 1012.40 1011.72 1011.02 1010.30 1009.58 1008.86 1008.16 1007.50 1006.90 1006.38 1005.94 1005.60 1005.36 1005.22 1005.16 1005.18 1005.26 1005.38 1005.53 1005.69 1005.84 1005.98 1006.10 1006.21 1006.30 1006.37 1006.44 1006.49 1006.53 1006.55 1006.55 1006.54 1006.50
1014.91 1014.35 1013.76 1013.15 1012.51 1011.86 1011.18 1010.47 1009.75 1009.01 1008.27 1007.54 1006.84 1006.19 1005.60 1005.10 1004.70 1004.40 1004.21 1004.11 1004.11 1004.18 1004.31 1004.46 1004.63 1004.80 1004.96 1005.09 1005.21 1005.30 1005.38 1005.44 1005.48 1005.52 1005.55 1005.56 1005.55 1005.53
1014.46 1013.89 1013.30 1012.68 1012.05 1011.41 1010.74 1010.05 1009.33 1008.59 1007.84 1007.08 1006.34 1005.64 1005.00 1004.43 1003.97 1003.61 1003.37 1003.23 1003.20 1003.25 1003.36 1003.51 1003.68 1003.86 1004.02 1004.15 1004.26 1004.35 1004.42 1004.47 1004.51 1004.55 1004.58 1004.60 1004.61 1004.61
1014.12 1013.55 1012.96 1012.36 1011.75 1011.13 1010.48 1009.81 1009.10 1008.36 1007.59 1006.81 1006.03 1005.28 1004.57 1003.95 1003.42 1003.00 1002.70 1002.53 1002.46 1002.48 1002.58 1002.72 1002.88 1003.04 1003.19 1003.32 1003.41 1003.49 1003.53 1003.57 1003.60 1003.62 1003.65 1003.68 1003.70 1003.73
1013.95 1013.38 1012.81 1012.23 1011.65 1011.05 1010.43 1009.77 1009.07 1008.33 1007.54 1006.73 1005.90 1005.10 1004.34 1003.65 1003.06 1002.59 1002.24 1002.01 1001.91 1001.91 1001.98 1002.09 1002.24 1002.38 1002.51 1002.61 1002.69 1002.73 1002.75 1002.76 1002.76 1002.76 1002.77 1002.79 1002.82 1002.85
1013.93 1013.38 1012.83 1012.28 1011.73 1011.16 1010.56 1009.91 1009.21 1008.46 1007.65 1006.80 1005.94 1005.08 1004.27 1003.53 1002.89 1002.36 1001.97 1001.70 1001.56 1001.52 1001.56 1001.65 1001.77 1001.88 1001.98 1002.05 1002.08 1002.08 1002.06 1002.02 1001.98 1001.95 1001.93 1001.93 1001.94 1001.95
Thickness
5713 5712 5710 5712 5712 5711 5709 5706 5699 5693 5696 5704 5707 5709 5707 5704 5701 5698 5697 5694 5693 5692 5692 5691 5691 5691 5691 5691 5691 5692 5692 5693 5693 5694 5694 5695 5695 5696
5710 5709 5708 5708 5709 5708 5707 5705 5701 5695 5691 5699 5701 5704 5703 5702 5698 5695 5694 5693 5691 5690 5689 5689 5688 5688 5688 5687 5687 5688 5688 5689 5689 5690 5690 5691 5692 5693
5708 5707 5705 5704 5702 5703 5703 5701 5699 5696 5690 5693 5698 5700 5699 5697 5695 5693 5691 5690 5689 5689 5688 5688 5687 5686 5685 5685 5684 5684 5684 5684 5685 5685 5685 5686 5687 5688
5705 5704 5702 5701 5699 5697 5696 5695 5695 5694 5690 5687 5689 5692 5693 5693 5692 5690 5689 5688 5688 5689 5688 5687 5685 5684 5683 5682 5681 5681 5681 5680 5681 5681 5681 5682 5682 5683
5704 5702 5700 5698 5695 5694 5693 5691 5690 5690 5689 5685 5685 5687 5688 5689 5688 5687 5686 5685 5685 5686 5686 5685 5684 5682 5681 5680 5679 5678 5678 5677 5677 5677 5677 5677 5678 5678
5702 5701 5698 5696 5694 5691 5689 5687 5685 5683 5683 5681 5681 5681 5682 5684 5683 5681 5680 5681 5681 5682 5684 5684 5682 5680 5679 5678 5677 5676 5675 5674 5673 5673 5673 5673 5673 5673
5699 5698 5696 5695 5693 5690 5687 5685 5682 5679 5677 5676 5676 5676 5677 5676 5676 5677 5675 5676 5678 5679 5678 5679 5679 5677 5675 5674 5673 5673 5672 5671 5670 5669 5668 5668 5668 5668
5695 5694 5693 5691 5690 5687 5684 5682 5678 5674 5673 5671 5671 5671 5672 5673 5672 5671 5669 5667 5667 5673 5671 5673 5674 5673 5673 5673 5672 5672 5670 5669 5667 5665 5664 5664 5663 5663
5689 5687 5686 5688 5686 5684 5681 5677 5675 5672 5669 5666 5665 5666 5666 5666 5664 5663 5662 5660 5661 5664 5662 5662 5666 5666 5668 5669 5669 5669 5667 5665 5663 5661 5660 5659 5658 5658
5680 5679 5677 5677 5677 5674 5673 5672 5671 5670 5667 5663 5660 5662 5661 5660 5657 5655 5654 5655 5657 5658 5655 5652 5656 5658 5662 5663 5663 5663 5662 5661 5658 5657 5655 5654 5653 5653
5670 5670 5668 5667 5666 5663 5661 5661 5661 5663 5664 5662 5660 5659 5657 5654 5650 5646 5645 5643 5645 5650 5651 5648 5650 5651 5653 5656 5657 5656 5656 5655 5653 5652 5650 5649 5648 5646
5657 5657 5656 5653 5651 5649 5647 5648 5648 5651 5651 5651 5650 5650 5649 5647 5644 5639 5637 5634 5636 5640 5646 5643 5643 5643 5643 5649 5650 5650 5649 5648 5647 5645 5644 5643 5641 5637
5642 5642 5642 5638 5636 5634 5632 5632 5634 5635 5636 5637 5639 5640 5640 5639 5639 5637 5634 5630 5629 5633 5638 5635 5635 5635 5634 5637 5640 5642 5641 5641 5640 5638 5637 5636 5634 5631
5624 5625 5625 5622 5620 5619 5619 5621 5620 5619 5621 5624 5626 5628 5628 5630 5631 5630 5630 5628 5627 5628 5629 5627 5625 5625 5624 5624 5627 5631 5633 5633 5633 5633 5633 5632 5629 5627
5608 5608 5606 5604 5603 5606 5608 5607 5605 5605 5606 5608 5611 5614 5616 5618 5618 5618 5619 5619 5619 5620 5619 5618 5615 5614 5613 5614 5616 5618 5620 5623 5625 5625 5625 5625 5624 5622
5591 5590 5588 5589 5589 5591 5593 5594 5593 5592 5592 5593 5596 5599 5601 5601 5602 5603 5603 5605 5604 5608 5611 5611 5609 5606 5605 5605 5606 5608 5610 5611 5614 5615 5616 5617 5618 5618
5567 5568 5571 5573 5575 5576 5576 5577 5576 5576 5575 5576 5577 5579 5581 5583 5585 5586 5587 5588 5589 5592 5597 5601 5601 5600 5599 5597 5596 5599 5600 5602 5604 5606 5605 5607 5610 5611
5545 5549 5551 5551 5552 5552 5552 5553 5553 5553 5553 5554 5556 5558 5561 5563 5566 5569 5569 5571 5574 5579 5583 5587 5588 5586 5586 5590 5591 5591 5592 5594 5596 5597 5598 5598 5601 5605
5529 5531 5530 5529 5528 5528 5528 5528 5530 5531 5531 5532 5535 5538 5541 5545 5548 5552 5554 5556 5560 5565 5571 5574 5576 5574 5574 5579 5587 5586 5585 5587 5587 5589 5590 5591 5594 5598
5515 5513 5510 5509 5508 5507 5507 5507 5509 5510 5512 5513 5517 5520 5524 5527 5532 5538 5541 5544 5549 5553 5558 5563 5566 5568 5569 5572 5575 5580 5581 5581 5581 5581 5583 5586 5589 5592
5496 5493 5491 5490 5489 5488 5488 5489 5491 5493 5495 5498 5501 5505 5510 5514 5519 5525 5530 5534 5537 5542 5546 5552 5558 5562 5563 5563 5563 5570 5574 5576 5577 5577 5578 5578 5580 5582
5478 5476 5475 5473 5473 5473 5474 5475 5478 5480 5483 5486 5490 5494 5499 5504 5509 5515 5520 5525 5529 5534 5539 5545 5549 5552 5553 5554 5557 5562 5566 5569 5571 5573 5574 5577 5575 5576
5463 5462 5461 5461 5462 5462 5463 5465 5467 5470 5472 5476 5480 5486 5491 5496 5502 5507 5513 5518 5522 5527 5532 5537 5542 5544 5547 5549 5552 5555 5559 5562 5564 5566 5569 5573 5573 5574